Location: Newark
(39.0622°N, 106.5590°E)
Time: 20:05:10
(UTC+00:00)

Courier 1B - Pass Details

Date: 25 January 2020
Orbit: 962 x 1209 km, 28.3° (Epoch: 22 February)

Event Time Altitude Azimuth Distance (km) Brightness Sun altitude
Rises 19:18:16 0° 230° (SW) 3,811 - -55.1°
Reaches altitude 10° 19:21:21 10° 219° (SW) 2,899 - -54.6°
Maximum altitude 19:27:10 27° 164° (SSE) 1,978 - -53.5°
Drops below altitude 10° 19:33:17 10° 109° (ESE) 3,052 - -52.4°
Exits shadow 19:33:31 - 108° (ESE) 3,116 10.4 -52.4°
Sets 19:36:37 0° 98° (E) 4,048 11.2 -51.8°
